Location: Augustenthal
(51.7167°N, 10.2833°E)
Time: 08:04:57
(UTC+00:00)

Cosmos 1743 - Pass Details

Date: 18 May 2021
Orbit: 510 x 525 km, 82.6° (Epoch: 20 June)

Event Time Altitude Azimuth Distance (km) Brightness Sun altitude
Rises 21:01:51 0° 346° (NNW) 2,661 7.9 -12.8°
Reaches altitude 10° 21:04:01 10° 342° (NNW) 1,770 6.8 -13.0°
Maximum altitude 21:07:48 55° 265° (W) 637 3.3 -13.3°
Enters shadow 21:10:47 16° 190° (S) 1,436 4.5 -13.5°
